Chatawa, MS

3:24 AM CDT on September 26, 2016 (GMT -0500)
McComb-Pike County-Lewis

Weather History for KMCB - February, 2013

Change the Weather History Date:

Monday, February 18, 2013

  Actual Average Record
Temperature  
Mean Temperature 52 °F -  
Max Temperature 63 °F 63 °F 81 °F (1961)
Min Temperature 41 °F 42 °F 20 °F (1958)
Degree Days  
Heating Degree Days 13    
Growing Degree Days 2 (Base 50)    
Moisture  
Dew Point 50 °F    
Average Humidity 86    
Maximum Humidity 100    
Minimum Humidity 60    
Precipitation  
Precipitation 0.55 in - - ()
Sea Level Pressure  
Sea Level Pressure 30.05 in    
Wind  
Wind Speed 11 mph (SSE)    
Max Wind Speed 23 mph    
Max Gust Speed 37 mph    
Visibility 9 miles    
Events Rain    
Averages and records for this station are not official NWS values.
T = Trace of Precipitation, MM = Missing Value Source: NWS Daily Summary

Daily Weather History Graph

Daily Weather History Graph

Search for Another Location

Airport or City:

Trip Planner

Search our weather history database for the weather conditions in past years. The results will help you decide how hot, cold, wet, or windy it might be!

Date:

Astronomy

Feb. 18, 2013 Rise Set
Actual Time 6:39 AM CST 5:51 PM CST
Civil Twilight 6:15 AM CST 6:16 PM CST
Nautical Twilight 5:47 AM CST 6:44 PM CST
Astronomical Twilight 5:18 AM CST 7:13 PM CST
Moon 11:48 AM CST (2/18) 1:09 AM CST (2/18)
Length of Visible Light 12h 01m
Length of Day
11h 12m
First Quarter, 58% of the Moon is Illuminated
Feb 18
First Quarter
Feb 25
Full
Mar 4
Last Quarter
Mar 11
New
Mar 19
First Quarter

Hourly Weather History & Observations

Time (CST) Temp. Windchill Dew Point Humidity Pressure Visibility Wind Dir Wind Speed Gust Speed Precip Events Conditions
12:53 AM 41.0 °F 37.1 °F 37.0 °F 86% 30.22 in 10.0 mi SSE 5.8 mph - N/A   Clear
1:53 AM 42.1 °F 38.4 °F 37.0 °F 82% 30.20 in 10.0 mi SSE 5.8 mph - N/A   Clear
2:53 AM 41.0 °F 36.4 °F 37.0 °F 86% 30.18 in 10.0 mi SSE 6.9 mph - N/A   Clear
3:53 AM 42.1 °F 38.4 °F 37.0 °F 82% 30.18 in 10.0 mi SSE 5.8 mph - N/A   Clear
4:53 AM 42.1 °F 38.4 °F 37.9 °F 85% 30.17 in 10.0 mi SSE 5.8 mph - N/A   Clear
5:53 AM 45.0 °F 41.2 °F 39.9 °F 82% 30.17 in 10.0 mi SE 6.9 mph - N/A   Clear
6:53 AM 46.9 °F - 41.0 °F 80% 30.17 in 10.0 mi SSE 8.1 mph - N/A   Clear
8:53 AM 55.9 °F - 45.0 °F 67% 30.17 in 10.0 mi SSE 12.7 mph 19.6 mph N/A   Mostly Cloudy
9:53 AM 55.9 °F - 46.0 °F 69% 30.17 in 10.0 mi SSE 11.5 mph 19.6 mph N/A   Overcast
10:53 AM 60.1 °F - 46.9 °F 62% 30.16 in 10.0 mi SSE 18.4 mph 26.5 mph N/A   Overcast
11:53 AM 62.1 °F - 48.0 °F 60% 30.13 in 10.0 mi SSE 23.0 mph 29.9 mph N/A   Overcast
12:53 PM 62.1 °F - 48.9 °F 62% 30.09 in 10.0 mi SSE 20.7 mph 36.8 mph N/A   Overcast
1:53 PM 63.0 °F - 48.9 °F 60% 30.06 in 10.0 mi SSE 17.3 mph 28.8 mph N/A   Overcast
2:53 PM 60.1 °F - 51.1 °F 72% 30.06 in 10.0 mi SSE 17.3 mph 21.9 mph 0.00 in   Overcast
3:53 PM 57.0 °F - 52.0 °F 83% 30.04 in 10.0 mi SSE 11.5 mph 19.6 mph 0.00 in   Overcast
4:14 PM 57.2 °F - 51.8 °F 82% 30.04 in 10.0 mi SSE 12.7 mph 21.9 mph N/A   Overcast
4:53 PM 55.9 °F - 51.1 °F 84% 30.03 in 10.0 mi SSE 16.1 mph 24.2 mph N/A   Overcast
5:31 PM 55.4 °F - 51.8 °F 88% 30.02 in 8.0 mi SSE 15.0 mph - 0.00 in Rain Light Rain
5:53 PM 54.0 °F - 52.0 °F 93% 30.01 in 10.0 mi SE 11.5 mph - 0.00 in   Overcast
6:11 PM 53.6 °F - 51.8 °F 94% 30.01 in 10.0 mi SSE 13.8 mph - 0.00 in Rain Light Rain
6:15 PM 53.6 °F - 51.8 °F 94% 30.01 in 10.0 mi SSE 11.5 mph - 0.00 in   Overcast
6:27 PM 53.6 °F - 51.8 °F 94% 30.01 in 10.0 mi SE 12.7 mph 19.6 mph 0.00 in   Overcast
6:40 PM 53.6 °F - 51.8 °F 94% 30.01 in 10.0 mi SSE 13.8 mph 19.6 mph 0.00 in   Overcast
6:53 PM 54.0 °F - 52.0 °F 93% 30.00 in 10.0 mi SSE 13.8 mph 20.7 mph 0.00 in   Overcast
7:03 PM 55.4 °F - 53.6 °F 94% 30.01 in 10.0 mi SSE 16.1 mph 24.2 mph N/A   Overcast
7:37 PM 55.4 °F - 53.6 °F 94% 29.99 in 10.0 mi SSE 15.0 mph 19.6 mph N/A   Overcast
7:53 PM 55.9 °F - 53.1 °F 90% 29.99 in 10.0 mi SSE 13.8 mph - N/A   Overcast
8:21 PM 55.4 °F - 53.6 °F 94% 29.99 in 10.0 mi SSE 16.1 mph 24.2 mph 0.00 in   Overcast
8:50 PM 55.4 °F - 55.4 °F 100% 29.98 in 5.0 mi SSE 11.5 mph - 0.05 in Rain Light Rain
8:53 PM 55.9 °F - 55.0 °F 97% 29.98 in 6.0 mi SSE 12.7 mph - 0.05 in Rain Light Rain
9:53 PM 57.0 °F - 55.9 °F 96% 29.96 in 8.0 mi South 12.7 mph - 0.03 in Rain Light Rain
10:25 PM 57.2 °F - 57.2 °F 100% 29.95 in 9.0 mi South 10.4 mph 18.4 mph 0.07 in Rain Light Rain
10:53 PM 59.0 °F - 57.9 °F 96% 29.95 in 6.0 mi South 15.0 mph 21.9 mph 0.17 in Rain Rain
10:55 PM 59.0 °F - 57.2 °F 94% 29.96 in 6.0 mi South 15.0 mph 21.9 mph 0.00 in Rain Rain
11:07 PM 59.0 °F - 57.2 °F 94% 29.96 in 2.5 mi South 13.8 mph 20.7 mph 0.09 in Rain Heavy Rain
11:13 PM 59.0 °F - 57.2 °F 94% 29.96 in 2.0 mi South 15.0 mph 21.9 mph 0.15 in Rain Heavy Rain
11:25 PM 59.0 °F - 57.2 °F 94% 29.95 in 3.0 mi South 13.8 mph 23.0 mph 0.22 in Rain Heavy Rain
11:53 PM 59.0 °F - 59.0 °F 100% 29.95 in 5.0 mi South 15.0 mph - 0.30 in Rain Rain